Regional Weather Roundup
Issued by NWS Portland, ME

Home | Current Version | Previous Version | Text Only | Print | Product List | Glossary On
Versions: 1 2 3 4 5 6 7 8 9 10 11 12 13 14 15 16 17 18 19 20 21 22 23 24 25 26 27 28 29 30 31 32 33 34 35 36 37 38 39 40 41 42 43 44 45 46 47 48 49 50
000
ASUS41 KGYX 231005
RWRGYX
WEATHER ROUNDUP FOR MAINE AND NEW HAMPSHIRE
NATIONAL WEATHER SERVICE GRAY ME
600 AM EDT WED APR 23 2014

MEZ002-005-006-010-012-015-018-020-021-024-026-027-029-231100-
MAINE

CITY           SKY/WX    TMP DP  RH WIND       PRES   REMARKS
PORTLAND       FOG       45  44  97 W3        29.42S VSB<1/4
SANFORD        MOCLDY    45 N/A N/A CALM      29.41R VSB<1/4
BAR HARBOR     CLOUDY    45  45 100 S6        29.42R
WISCASSET      CLOUDY    46  44  93 CALM      29.42F FOG
ROCKLAND       CLOUDY    45  45 100 CALM      29.41F VSB 1/2
FRYEBURG       FOG       41  40  96 NE3       29.42R VSB 1/4
LEWISTONAUBURN CLOUDY    45  43  93 CALM      29.41S VSB<1/4
AUGUSTA        FOG       44  44 100 CALM      29.42S VSB 1/4
WATERVILLE     CLOUDY    45  43  93 CALM      29.38S VSB<1/4
BANGOR         CLOUDY    46  44  93 CALM      29.42R
GREENVILLE       N/A     41  40  96 CALM      29.37S
MILLINOCKET    CLOUDY    44  42  93 CALM      29.41S
HOULTON        LGT RAIN  46  44  93 SE12      29.40F
PRESQUE ISLE   CLOUDY    45  39  81 SE13      29.41S
FRENCHVILLE    LGT RAIN  36  35  96 E13       29.39F FOG
CARIBOU        LGT RAIN  43  41  93 SE8       29.39F
$$

NHZ002-005-008-009-011-012-014-231100-
NEW HAMPSHIRE

CITY           SKY/WX    TMP DP  RH WIND       PRES   REMARKS
PORTSMOUTH     MOCLDY    51  51 100 W6        29.41R
ROCHESTER      MOCLDY    49  48  97 W3        29.41R
NASHUA         MOCLDY    51  50  97 CALM      29.44R
MANCHESTER     MOCLDY    52  49  89 W3        29.42R FOG
CONCORD        FOG       43  43 100 CALM      29.43S VSB 3/4
LACONIA          N/A     45  43  93 CALM      29.43R VSB 3/4
PLYMOUTH         N/A     45  44  98 W6        29.44R
BERLIN         MOCLDY    47  43  86 VRB6      29.42R
WHITEFIELD     MOCLDY    46  43  89 NW7       29.45R
JAFFREY        CLOUDY    48  43  82 W9        29.46R
LEBANON        CLOUDY    51  43  74 VRB5      29.45R
MT WASHINGTON  FRZ DRZL  30  30 100 NW40G48     N/A  VSB 0   WCI  13
$$

VTZ005-007-008-231100-
VERMONT

CITY           SKY/WX    TMP DP  RH WIND       PRES   REMARKS
ST JOHNSBURY     N/A     45  40  82 MISG      29.47R
MONTPELIER     MOCLDY    42  40  92 NW13G20   29.52R
BURLINGTON     CLOUDY    43  41  93 NW8       29.54R
$$

MAZ007-012-024-CTZ003-RIZ002-NYZ038-NYZ072-231100-
SOUTHERN NEW ENGLAND AND NY

CITY           SKY/WX    TMP DP  RH WIND       PRES   REMARKS
BOSTON         MOCLDY    52  49  89 SW3       29.44S
WORCESTER      MOCLDY    48  44  86 W16       29.46R
NANTUCKET      PTCLDY    45  43  93 SW7       29.46R
PROVIDENCE     PTCLDY    48  46  93 CALM      29.44S
HARTFORD       CLOUDY    49  42  77 N12       29.49R
ALBANY         CLOUDY    45  36  70 NW15G24   29.56R
NEW YORK CITY  CLOUDY    51  39  63 NW20      29.54R
$$

ANZ081-ANZ082-ANZ150-NHZ014-MEZ023>029-231100-
COASTAL MARINE OBSERVATIONS

STATION/POSITION TIME  TEMP    WIND        PRES    WAVE
                       AIR SEA DIR/SP/G            HT/PER
                 (UTC) (F)     (DEG/KT/KT) (MB)    (FT/S)
MOUNT DESERT ROC 1000   44                  996.1R
MATINICUS ROCK   0900   43     210/ 15/ 16  996.1R
PORTLAND WX BUOY 1000   44 42   20/  4/  4  995.6F   3/ 6
WELLS            1000   49 40   70/  1/  2  995.0R
ISLE OF SHOALS   0900   53     280/  8/  9  995.1F
JEFFREYS LEDGE   0900      43                N/A     3/ 9
CASHES LEDGE BUO 1000   45 42  200/ 10/ 14  995.6F   3/ 5
$$

.............KEY..............
   WCI - WIND CHILL
   TC  - TEMPERATURE IN CELSIUS
   VSB - VISIBILITY IN MILES
   HX  - HEAT INDEX
   FAIR- INDICATES FEW OR NO CLOUDS BELOW 12,000 FT, WITH NO
         SIGNIFICANT WEATHER AND/OR OBSTRUCTIONS TO VISIBILITY.





USA.gov is the U.S. government's official web portal to all federal, state and local government web resources and services.